User: anonymous   Login
Location: Potomac
(46.8816°N, 113.5795°W)
Time: 13:44:06
(UTC+00:00)
Language:

UNISAT 6 - Orbit

View from above orbital plane
View from above orbital plane
View from above satellite
View from above satellite

Ground track
Ground track

The orbit data is extracted from the following two-line orbital elements,

1 40012U 14033C   22178.76397327  .00000966  00000-0  14700-3 0  9998
2 40012  97.6616   6.1766 0058715 124.8631 235.8119 14.74931010431503
Epoch (UTC): 27 June 2022 18:20:07
Eccentricity: 0.0058715
inclination: 97.6616°
perigee height: 604 km
apogee height: 686 km
right ascension of ascending node: 6.1766°
argument of perigee: 124.8631°
revolutions per day: 14.74931010
mean anomaly at epoch: 235.8119°
orbit number at epoch: 43150

The dashed part of the orbit path shows where the satellite is in the earth's shadow,  

DLR